Window Rock, AZ

3:44 PM MDT on June 22, 2017 (GMT -0600)
Window Rock

Weather History for KRQE - May, 2013

Change the Weather History Date:

Friday, May 10, 2013

  Actual Average Record
Temperature  
Mean Temperature 46 °F -  
Max Temperature 63 °F 69 °F 87 °F (1947)
Min Temperature 28 °F 35 °F 19 °F (2003)
Degree Days  
Heating Degree Days 20    
Moisture  
Dew Point 30 °F    
Average Humidity 56    
Maximum Humidity 89    
Minimum Humidity 26    
Precipitation  
Precipitation 0.00 in - - ()
Sea Level Pressure  
Sea Level Pressure 30.07 in    
Wind  
Wind Speed 3 mph (NW)    
Max Wind Speed 18 mph    
Max Gust Speed 26 mph    
Visibility 10 miles    
Events Rain    
Averages and records for this station are not official NWS values.
T = Trace of Precipitation, MM = Missing Value Source: NWS Daily Summary

Daily Weather History Graph

Daily Weather History Graph

Search for Another Location

Airport or City:

Trip Planner

Search our weather history database for the weather conditions in past years. The results will help you decide how hot, cold, wet, or windy it might be!

Date:

Astronomy

May. 10, 2013 Rise Set
Actual Time 6:15 AM MDT 8:10 PM MDT
Civil Twilight 5:47 AM MDT 8:38 PM MDT
Nautical Twilight 5:13 AM MDT 9:12 PM MDT
Astronomical Twilight 4:36 AM MDT 9:49 PM MDT
Moon 6:42 AM MDT (5/10) 9:02 PM MDT (5/10)
Length of Visible Light 14h 51m
Length of Day
13h 55m
New Moon, 1% of the Moon is Illuminated
May 10
New Moon
May 17
First Quarter
May 24
Full
May 31
Last Quarter
Jun 8
New

Hourly Weather History & Observations

Time (MDT) Temp. Windchill Dew Point Humidity Pressure Visibility Wind Dir Wind Speed Gust Speed Precip Events Conditions
12:53 AM 36.0 °F - 30.0 °F 79% 30.04 in 10.0 mi Calm Calm - N/A   Clear
1:53 AM 34.0 °F - 28.9 °F 82% 30.04 in 10.0 mi Calm Calm - N/A   Clear
2:53 AM 30.9 °F - 27.0 °F 85% 30.04 in 10.0 mi Calm Calm - N/A   Mostly Cloudy
3:53 AM 30.0 °F - 25.0 °F 82% 30.06 in 10.0 mi Calm Calm - N/A   Clear
4:53 AM 28.9 °F - 25.0 °F 85% 30.09 in 10.0 mi Calm Calm - N/A   Clear
5:53 AM 28.9 °F - 26.1 °F 89% 30.10 in 10.0 mi Calm Calm - N/A   Clear
7:53 AM 37.9 °F - 30.0 °F 73% 30.11 in 10.0 mi Calm Calm - N/A   Clear
8:53 AM 46.9 °F - 32.0 °F 56% 30.07 in 10.0 mi NW 3.5 mph - N/A   Clear
9:53 AM 54.0 °F - 33.1 °F 45% 30.05 in 10.0 mi Calm Calm - N/A   Clear
10:53 AM 57.9 °F - 30.0 °F 35% 30.05 in 10.0 mi WNW 5.8 mph - N/A   Mostly Cloudy
11:53 AM 57.0 °F - 30.0 °F 36% 30.05 in 10.0 mi East 8.1 mph - N/A   Mostly Cloudy
12:53 PM 63.0 °F - 27.0 °F 26% 30.02 in 10.0 mi Calm Calm - N/A   Partly Cloudy
1:53 PM 61.0 °F - 30.0 °F 31% 30.03 in 10.0 mi West 16.1 mph 21.9 mph N/A   Mostly Cloudy
2:53 PM 57.9 °F - 30.9 °F 36% 30.06 in 10.0 mi WNW 12.7 mph 17.3 mph 0.00 in Rain Light Rain
3:53 PM 61.0 °F - 30.0 °F 31% 30.03 in 10.0 mi West 15.0 mph - 0.00 in   Clear
4:53 PM 62.1 °F - 28.9 °F 29% 30.03 in 10.0 mi WNW 15.0 mph - N/A   Clear
5:53 PM 59.0 °F - 28.0 °F 31% 30.05 in 10.0 mi NNW 3.5 mph - 0.00 in Rain Light Rain
6:53 PM 57.0 °F - 28.0 °F 33% 30.08 in 10.0 mi NW 6.9 mph - 0.00 in   Clear
7:53 PM 55.9 °F - 28.9 °F 36% 30.09 in 8.0 mi NE 18.4 mph 26.5 mph N/A   Scattered Clouds
8:53 PM 48.0 °F - 37.0 °F 66% 30.14 in 10.0 mi Variable 5.8 mph 19.6 mph N/A   Mostly Cloudy
9:53 PM 46.0 °F 44.8 °F 36.0 °F 68% 30.15 in 10.0 mi Variable 3.5 mph - N/A   Clear
10:53 PM 44.1 °F - 35.1 °F 71% 30.16 in 10.0 mi Calm Calm - N/A   Clear
11:53 PM 42.1 °F 40.2 °F 34.0 °F 73% 30.16 in 10.0 mi NNE 3.5 mph - N/A   Clear